Tracking 27401 objects as of 3-Jun-2023
HD Live streaming from Space Station
objects crossing your sky now

COSMOS 858

Track COSMOS 858 now!
10-day predictions
COSMOS 858 is classified as:


NORAD ID: 9443
Int'l Code: 1976-098A
Perigee: 774.9 km
Apogee: 793.5 km
Inclination: 74.1 °
Period: 100.4 minutes
Semi major axis: 7155 km
RCS: 2.2223 m2 (large)
Launch date: September 29, 1976
Source: Commonwealth of Independent States (former USSR) (CIS)
Launch site: PLESETSK MISSILE AND SPACE COMPLEX (PKMTR)
Your satellite tracking list
Your tracking list is empty




NASA's NSSDC Master Catalog

Two Line Element Set (TLE):
1 09443U 76098A   23154.58830144  .00000160  00000-0  66074-4 0  9992
2 09443  74.0511  29.4770 0013024  60.7309 299.5144 14.34401538439614
Source of the keplerian elements: AFSPC